[[{"header":{"parameterUnit":"m.s-1","parameterCategory":1,"la1":30.2991,"la2":30.254,"lo1":-89.0895,"lo2":-89.0444,"dy":0.0017,"dx":0.0017,"nx":28,"ny":28,"refTime":"2025-01-12T09:00:00:Z","depth":0,"parameterNumber":2,"parameterNumberName":"U-component_of_WINDS"},"data":[0,0,0,0,0,0,0,0,0,0,0,0,0,0,0,0,0,0,0,0,0,0,0,0,0,0,0,0,0,0,0,0,0,0,0,0,0,0,0,0,0,0,0,0,0,0,0,0,0,0,0,0,0,0,0,0,0,0,-3.4285,-3.4287,0,-3.4488,-3.4491,-3.4493,-3.4438,-3.4434,-3.443,-3.4426,-3.4643,-3.4653,-3.4662,0,0,0,0,0,0,0,0,0,0,0,0,0,-3.3857,-3.3865,-3.4284,-3.4287,-3.429,-3.4488,-3.4491,-3.4493,-3.4439,-3.4434,-3.4429,-3.4424,-3.464,-3.4651,-3.4663,0,0,0,0,0,0,0,0,0,0,0,0,0,-3.405,-3.3867,-3.4284,-3.4286,-3.4288,-3.4487,-3.4491,-3.4494,-3.444,-3.4434,-3.4428,-3.4422,-3.4636,-3.465,-3.4665,-3.4876,0,0,-3.4709,-3.4715,0,0,0,0,0,0,0,0,-3.4039,-3.4066,-3.4283,-3.4286,-3.4289,-3.4431,-3.4419,-3.4623,-3.4442,-3.4383,-3.4426,-3.4419,-3.4578,-3.4597,-3.4649,-3.4887,-3.4896,-3.471,-3.4719,-3.4725,-3.4729,0,0,0,0,0,0,0,-3.4026,-3.4057,-3.4365,-3.4287,-3.429,-3.428,-3.43,-3.4458,-3.4513,-3.4387,-3.4384,-3.4408,-3.4579,-3.4635,-3.4654,-3.4899,-3.4709,-3.4722,-3.4731,-3.4737,-3.5324,-3.5331,0,0,0,0,0,0,-3.4009,-3.4046,-3.4359,-3.4371,-3.4146,-3.4292,-3.4315,-3.4392,-3.4511,-3.4523,-3.4413,-3.4405,-3.4614,-3.4637,-3.4661,-3.492,-3.4725,-3.4738,-3.4746,-3.5317,-3.5326,-3.5333,0,0,0,0,0,0,-3.4,-3.4037,-3.4351,-3.4208,-3.4247,-3.4306,-3.4393,-3.4399,-3.4456,-3.453,-3.4541,-3.4461,-3.461,-3.4641,-3.4824,-3.4927,-3.4745,-3.4758,-3.5309,-3.532,-3.533,-3.5438,0,0,0,0,0,0,-3.3988,-3.4034,-3.4114,-3.421,-3.4254,-3.4507,-3.4399,-3.4408,-3.448,-3.4471,-3.4577,-3.4589,-3.4607,-3.4802,-3.4838,-3.4943,-3.4769,-3.53,-3.5314,-3.5326,-3.5426,-3.5451,-3.5472,0,0,0,0,0,-3.3973,-3.4137,-3.4118,-3.4156,-3.4354,-3.4513,-3.4539,-3.4554,-3.4488,-3.457,-3.4618,-3.4586,-3.4909,-3.4821,-3.4861,-3.4972,-3.5294,-3.531,-3.5325,-3.5415,-3.5446,-3.5472,0,0,0,0,0,0,-3.4054,-3.415,-3.413,-3.4329,-3.4413,-3.4504,-3.4607,-3.4586,-3.4693,-3.4681,-3.4697,-3.4722,-3.4909,-3.4958,-3.4859,-3.5185,-3.5092,-3.5117,-3.5147,-3.5177,-3.52,-3.5186,-3.4781,0,0,0,0,0,-3.4095,-3.4213,-3.4291,-3.446,-3.4503,-3.4548,-3.4618,-3.4622,-3.4711,-3.4747,-3.4808,-3.4898,-3.502,-3.51,-3.5216,-3.5431,-3.5456,-3.5527,-3.555,-3.5569,-3.5592,-3.5713,-3.5747,-3.5385,-3.5385,-3.5384,0,0,-3.4181,-3.4248,-3.4322,-3.4478,-3.4544,-3.467,-3.4579,-3.4714,-3.4809,-3.4769,-3.4945,-3.4993,-3.5095,-3.5295,-3.5386,-3.5342,-3.5697,-3.5589,-3.5604,-3.5616,-3.5732,-3.5767,-3.5797,-3.5396,-3.5394,-3.5392,0,0,-3.4404,-3.4464,-3.4613,-3.468,-3.478,-3.4809,-3.4844,-3.4938,-3.4968,-3.5145,-3.5118,-3.5231,-3.544,-3.5514,-3.5579,-3.583,-3.5806,-3.5867,-3.5992,-3.6109,-3.6138,-3.6163,-3.6257,-3.629,-3.5888,-3.5889,-3.5889,0,-3.45,-3.4685,-3.4693,-3.4832,-3.4903,-3.4869,-3.5022,-3.5088,-3.5221,-3.5273,-3.522,-3.5482,-3.5548,-3.5767,-3.5828,-3.588,-3.5925,-3.5857,-3.6132,-3.6158,-3.6182,-3.6272,-3.6307,-3.5896,-3.5895,-3.5894,-3.5893,0,-3.48,-3.4929,-3.5038,-3.5166,-3.5249,-3.5394,-3.5427,-3.551,-3.5507,-3.5542,-3.5724,-3.5801,-3.5934,-3.5985,-3.5984,-3.6205,-3.6175,-3.6127,-3.6035,-3.6224,-3.6308,-3.6342,-3.5906,-3.5903,-3.5901,-3.5899,0,0,-3.5083,-3.5212,-3.5253,-3.5311,-3.5418,-3.552,-3.5665,-3.5791,-3.5865,-3.5957,-3.6082,-3.6259,-3.6216,-3.629,-3.6297,-3.6399,-3.6598,-3.634,-3.6342,-3.6389,-3.6852,-3.689,-3.693,-3.6581,-3.6587,-3.6592,-3.6845,0,-3.5318,-3.5571,-3.5582,-3.5814,-3.5935,-3.5904,-3.6031,-3.6112,-3.6149,-3.626,-3.63,-3.6428,-3.6358,-3.6403,-3.6503,-3.6553,-3.6692,-3.6534,-3.6702,-3.6708,-3.6682,-3.6973,-3.7014,-3.7249,-3.6877,-3.6883,-3.6887,0,-3.5627,-3.5728,-3.5971,-3.6062,-3.6114,-3.6227,-3.6346,-3.645,-3.6543,-3.6562,-3.6645,-3.6637,-3.6789,-3.6687,-3.69,-3.6792,-3.6861,-3.6896,-3.6905,-3.6925,-3.6812,-3.7006,-3.7323,-3.736,-3.6938,-3.6934,-3.693,0,-3.5814,-3.601,-3.6182,-3.6232,-3.6342,-3.6423,-3.6473,-3.6559,-3.6635,-3.6739,-3.679,-3.6911,-3.6979,-3.7074,-3.71,-3.7023,-3.7314,-3.7213,-3.7338,-3.7338,-3.7405,-3.7401,-3.7743,-3.7441,-3.7441,-3.744,-3.7439,0,-3.6078,-3.6229,-3.6268,-3.6374,-3.6543,-3.6555,-3.6724,-3.6768,-3.6845,-3.6962,-3.6942,-3.7052,-3.7078,-3.7195,-3.7216,-3.7391,-3.7421,-3.7444,-3.7449,-3.7449,-3.7447,-3.7498,-3.7484,-3.7449,-3.7447,-3.7445,-3.7444,0,-3.6318,-3.6349,-3.6535,-3.6622,-3.6648,-3.677,-3.6846,-3.695,-3.6983,-3.7131,-3.7167,-3.722,-3.7357,-3.7391,-3.7554,-3.7569,-3.7777,-3.7764,-3.7745,-3.7746,-3.7871,-3.7861,-3.8261,-3.8316,-3.7974,-3.7977,-3.798,0,-3.6487,-3.6602,-3.6702,-3.6777,-3.683,-3.6952,-3.7029,-3.7046,-3.7128,-3.7242,-3.7333,-3.7466,-3.7574,-3.7794,-3.785,-3.7976,-3.7969,-3.81,-3.7988,-3.7985,-3.7976,-3.7971,-3.7985,-3.8123,-3.8127,-3.813,-3.8132,0,-3.6785,-3.6794,-3.6905,-3.7022,-3.7114,-3.7208,-3.7297,-3.7361,-3.739,-3.7484,-3.7621,-3.7705,-3.7871,-3.8005,-3.8132,-3.8186,-3.8167,-3.8166,-3.8203,-3.8206,-3.8193,-3.8207,-3.7809,-3.8158,-3.8156,-3.8154,-3.8152,-3.8151,-3.6997,-3.71,-3.7186,-3.7311,-3.7379,-3.7463,-3.7566,-3.7611,-3.7725,-3.786,-3.7863,-3.8014,-3.8106,-3.8273,-3.8335,-3.8456,-3.8417,-3.8468,-3.8482,-3.8496,-3.8509,-3.8169,-3.8478,-3.8478,-3.8477,-3.8477,-3.8476,0,-3.7298,-3.7352,-3.7466,-3.7591,-3.769,-3.7657,-3.7755,-3.7842,-3.7974,-3.8059,-3.8165,-3.8326,-3.8456,-3.8521,-3.8651,-3.8736,-3.873,-3.877,-3.8766,-3.878,-3.8535,-3.8492,-3.8772,-3.8772,-3.8772,-3.8772,-3.8772,-3.8772,-3.7467,-3.7639,-3.7659,-3.7866,-3.7919,-3.8065,-3.8124,-3.8203,-3.8272,-3.8451,-3.8558,-3.8598,-3.8677,-3.8812,-3.8932,-3.8948,-3.8999,-3.9045,-3.9057,-3.8827,-3.8797,-3.8769,-3.8729,-3.9054,-3.9055,-3.9293,-3.9295,-3.9297]},{"header":{"parameterUnit":"m.s-1","parameterCategory":1,"la1":30.2991,"la2":30.254,"lo1":-89.0895,"lo2":-89.0444,"dy":0.0017,"dx":0.0017,"nx":28,"ny":28,"refTime":"2025-01-12T09:00:00:Z","depth":0,"parameterNumber":3,"parameterNumberName":"V-component_of_WINDS"},"data":[0,0,0,0,0,0,0,0,0,0,0,0,0,0,0,0,0,0,0,0,0,0,0,0,0,0,0,0,0,0,0,0,0,0,0,0,0,0,0,0,0,0,0,0,0,0,0,0,0,0,0,0,0,0,0,0,0,0,-5.5512,-5.5512,0,-5.55,-5.55,-5.55,-5.5402,-5.54,-5.5398,-5.5395,-5.5383,-5.5385,-5.5386,0,0,0,0,0,0,0,0,0,0,0,0,0,-5.5452,-5.5454,-5.5512,-5.5512,-5.5512,-5.55,-5.55,-5.55,-5.5403,-5.54,-5.5397,-5.5394,-5.5382,-5.5384,-5.5387,0,0,0,0,0,0,0,0,0,0,0,0,0,-5.5463,-5.5454,-5.5512,-5.5462,-5.5458,-5.55,-5.55,-5.55,-5.5404,-5.54,-5.5396,-5.5393,-5.5381,-5.5384,-5.5387,-5.5476,0,0,-5.5396,-5.5397,0,0,0,0,0,0,0,0,-5.5463,-5.5465,-5.547,-5.5466,-5.5461,-5.5449,-5.5474,-5.5492,-5.5404,-5.5424,-5.5395,-5.5391,-5.5408,-5.5408,-5.5414,-5.5476,-5.5475,-5.5396,-5.5398,-5.5399,-5.54,0,0,0,0,0,0,0,-5.5462,-5.5465,-5.5507,-5.547,-5.5465,-5.544,-5.5438,-5.5477,-5.5436,-5.5422,-5.5415,-5.5415,-5.5405,-5.5411,-5.5413,-5.5475,-5.5396,-5.5398,-5.54,-5.5401,-5.5609,-5.5613,0,0,0,0,0,0,-5.5468,-5.5465,-5.5508,-5.5507,-5.5453,-5.5445,-5.5442,-5.5457,-5.5436,-5.5429,-5.5418,-5.541,-5.5408,-5.5409,-5.5412,-5.5515,-5.5399,-5.5401,-5.5403,-5.5606,-5.561,-5.5614,0,0,0,0,0,0,-5.5467,-5.5473,-5.5508,-5.5484,-5.5487,-5.5449,-5.5467,-5.5458,-5.5465,-5.5432,-5.5425,-5.5432,-5.5405,-5.5408,-5.5461,-5.5513,-5.5403,-5.5405,-5.5601,-5.5607,-5.5612,-5.5722,0,0,0,0,0,0,-5.5466,-5.5473,-5.5507,-5.5486,-5.5489,-5.5558,-5.547,-5.546,-5.547,-5.546,-5.5444,-5.5438,-5.5403,-5.5457,-5.5464,-5.5515,-5.5407,-5.5596,-5.5604,-5.5611,-5.5714,-5.5731,-5.5746,0,0,0,0,0,-5.5464,-5.5538,-5.5509,-5.5515,-5.553,-5.5561,-5.5563,-5.5521,-5.5474,-5.5508,-5.5487,-5.5438,-5.5507,-5.5463,-5.547,-5.5523,-5.5593,-5.5602,-5.561,-5.5707,-5.5728,-5.5745,0,0,0,0,0,0,-5.5566,-5.5535,-5.5502,-5.5571,-5.557,-5.5545,-5.5586,-5.5545,-5.5556,-5.5547,-5.5494,-5.5492,-5.5553,-5.5543,-5.5496,-5.5608,-5.5541,-5.5552,-5.5612,-5.5632,-5.5648,-5.5649,-5.541,0,0,0,0,0,-5.5597,-5.5625,-5.5596,-5.566,-5.5661,-5.5624,-5.5636,-5.5604,-5.56,-5.5599,-5.5582,-5.558,-5.5601,-5.5616,-5.5633,-5.5712,-5.5707,-5.5752,-5.5768,-5.5781,-5.579,-5.5831,-5.5851,-5.5643,-5.5643,-5.5643,0,0,-5.566,-5.5646,-5.5667,-5.568,-5.5675,-5.5705,-5.5624,-5.5659,-5.5681,-5.5604,-5.5653,-5.5641,-5.5635,-5.5702,-5.573,-5.5696,-5.5847,-5.5792,-5.5803,-5.5805,-5.5842,-5.5862,-5.5879,-5.5649,-5.5648,-5.5647,0,0,-5.5791,-5.5784,-5.5836,-5.5833,-5.5827,-5.5801,-5.5814,-5.5796,-5.5785,-5.5833,-5.5776,-5.5801,-5.5839,-5.5837,-5.5841,-5.5972,-5.5928,-5.598,-5.6063,-5.6104,-5.612,-5.6134,-5.6181,-5.6198,-5.5989,-5.5989,-5.599,0,-5.5871,-5.5914,-5.5868,-5.5908,-5.5915,-5.5847,-5.59,-5.5899,-5.5899,-5.5905,-5.5867,-5.5912,-5.5904,-5.5969,-5.6001,-5.6006,-5.6019,-5.5981,-5.6121,-5.6135,-5.6148,-5.6192,-5.621,-5.5996,-5.5995,-5.5994,-5.5994,0,-5.6012,-5.6044,-5.6087,-5.6088,-5.61,-5.6146,-5.6108,-5.6125,-5.6093,-5.6072,-5.6122,-5.611,-5.6123,-5.6136,-5.6105,-5.6197,-5.6176,-5.6131,-5.6062,-5.6175,-5.6215,-5.6232,-5.6005,-5.6003,-5.6001,-5.5999,0,0,-5.6207,-5.6183,-5.62,-5.62,-5.6188,-5.6211,-5.6254,-5.6267,-5.6283,-5.6286,-5.632,-5.6354,-5.6311,-5.6316,-5.6284,-5.632,-5.6424,-5.6269,-5.6268,-5.6298,-5.6525,-5.656,-5.658,-5.6395,-5.6398,-5.64,-5.6526,0,-5.6333,-5.6405,-5.6365,-5.6443,-5.6471,-5.6407,-5.6444,-5.6441,-5.6423,-5.6444,-5.6423,-5.6448,-5.639,-5.6393,-5.6425,-5.6405,-5.6469,-5.6395,-5.6427,-5.6428,-5.643,-5.6601,-5.6638,-5.6757,-5.6541,-5.6544,-5.6546,0,-5.6489,-5.6498,-5.6579,-5.6562,-5.6572,-5.6606,-5.6616,-5.6637,-5.6632,-5.6616,-5.6622,-5.6581,-5.6622,-5.6555,-5.661,-5.6561,-5.6572,-5.6564,-5.6567,-5.6569,-5.6494,-5.6607,-5.6794,-5.6812,-5.6571,-5.6569,-5.6567,0,-5.6623,-5.6656,-5.6708,-5.671,-5.6691,-5.6717,-5.671,-5.6702,-5.6713,-5.6721,-5.6727,-5.674,-5.6748,-5.6759,-5.6723,-5.6677,-5.6784,-5.6713,-5.6772,-5.6773,-5.6797,-5.6796,-5.6988,-5.6804,-5.6804,-5.6804,-5.6803,0,-5.6768,-5.682,-5.6768,-5.68,-5.6856,-5.681,-5.6867,-5.6853,-5.6846,-5.6875,-5.682,-5.6848,-5.6799,-5.6822,-5.6794,-5.6844,-5.6848,-5.6836,-5.6828,-5.6841,-5.6843,-5.6847,-5.6838,-5.6808,-5.6807,-5.6806,-5.6805,0,-5.6927,-5.6894,-5.6947,-5.6925,-5.6921,-5.6963,-5.6944,-5.6973,-5.6951,-5.6988,-5.6994,-5.696,-5.6984,-5.6949,-5.697,-5.6951,-5.7021,-5.7,-5.7023,-5.7016,-5.7077,-5.7072,-5.7279,-5.7304,-5.7104,-5.7106,-5.7108,0,-5.7021,-5.706,-5.7042,-5.7057,-5.7054,-5.7079,-5.709,-5.7046,-5.7059,-5.7057,-5.7086,-5.7106,-5.7119,-5.7161,-5.7139,-5.7154,-5.7133,-5.7205,-5.7135,-5.7147,-5.7135,-5.7133,-5.7136,-5.7219,-5.7222,-5.7224,-5.7225,0,-5.7192,-5.7174,-5.7192,-5.7205,-5.7219,-5.7227,-5.723,-5.7246,-5.7199,-5.7218,-5.7242,-5.7252,-5.7273,-5.7294,-5.7304,-5.7296,-5.7254,-5.7247,-5.7262,-5.7275,-5.7287,-5.7282,-5.7061,-5.7243,-5.7241,-5.724,-5.7239,-5.7238,-5.7322,-5.7353,-5.7345,-5.7367,-5.7365,-5.737,-5.7396,-5.7377,-5.7397,-5.741,-5.7383,-5.7415,-5.7409,-5.7418,-5.7416,-5.7439,-5.7408,-5.7429,-5.7434,-5.744,-5.745,-5.7283,-5.7441,-5.744,-5.744,-5.7439,-5.7439,0,-5.749,-5.7482,-5.7502,-5.7509,-5.7526,-5.7484,-5.7486,-5.7503,-5.7531,-5.753,-5.7544,-5.7572,-5.7592,-5.7571,-5.7586,-5.761,-5.7591,-5.7615,-5.7613,-5.7612,-5.7477,-5.7463,-5.7631,-5.7631,-5.7631,-5.7631,-5.7631,-5.7631,-5.7579,-5.763,-5.7611,-5.766,-5.7652,-5.7682,-5.7687,-5.7691,-5.7689,-5.7723,-5.7739,-5.7725,-5.7716,-5.773,-5.7747,-5.774,-5.7748,-5.778,-5.7767,-5.7641,-5.7622,-5.7604,-5.7591,-5.7783,-5.7783,-5.79,-5.7902,-5.7902]}]]